[[{"header":{"parameterUnit":"m.s-1","parameterCategory":1,"la1":30.2991,"la2":30.254,"lo1":-89.0895,"lo2":-89.0444,"dy":0.0017,"dx":0.0017,"nx":28,"ny":28,"refTime":"2024-05-29T03:00:00:Z","depth":0,"parameterNumber":2,"parameterNumberName":"U-component_of_WINDS"},"data":[0,0,0,0,0,0,0,0,0,0,0,0,0,0,0,0,0,0,0,0,0,0,0,0,0,0,0,0,0,0,0,0,0,0,0,0,0,0,0,0,0,0,0,0,0,0,0,0,0,0,0,0,0,0,0,0,0,0,-2.0934,-2.0935,0,-2.102,-2.1021,-2.1022,-2.103,-2.1029,-2.1028,-2.1027,-2.1115,-2.1119,-2.1122,0,0,0,0,0,0,0,0,0,0,0,0,0,-2.0776,-2.0779,-2.0934,-2.0935,-2.0936,-2.102,-2.1021,-2.1023,-2.103,-2.1029,-2.1028,-2.1027,-2.1114,-2.1118,-2.1122,0,0,0,0,0,0,0,0,0,0,0,0,0,-2.0852,-2.078,-2.0934,-2.095,-2.0953,-2.102,-2.1022,-2.1023,-2.103,-2.1029,-2.1028,-2.1026,-2.1113,-2.1118,-2.1123,-2.118,0,0,-2.1137,-2.1139,0,0,0,0,0,0,0,0,-2.0847,-2.0858,-2.0947,-2.0949,-2.0952,-2.1013,-2.0998,-2.1076,-2.1031,-2.1001,-2.1027,-2.1026,-2.1083,-2.109,-2.1109,-2.1184,-2.1188,-2.1138,-2.1141,-2.1143,-2.1144,0,0,0,0,0,0,0,-2.0842,-2.0854,-2.0968,-2.0948,-2.0951,-2.0953,-2.0962,-2.1013,-2.1048,-2.1003,-2.1004,-2.1014,-2.1084,-2.1104,-2.1111,-2.1189,-2.1138,-2.1142,-2.1145,-2.1147,-2.1315,-2.1317,0,0,0,0,0,0,-2.0834,-2.0849,-2.0966,-2.0971,-2.0895,-2.0957,-2.0968,-2.0995,-2.1048,-2.1055,-2.1015,-2.1014,-2.1097,-2.1105,-2.1114,-2.1184,-2.1143,-2.1147,-2.115,-2.1314,-2.1315,-2.1317,0,0,0,0,0,0,-2.083,-2.0844,-2.0962,-2.091,-2.0926,-2.0961,-2.0992,-2.0997,-2.1018,-2.1057,-2.1063,-2.103,-2.1096,-2.1107,-2.1163,-2.1187,-2.1149,-2.1154,-2.1312,-2.1314,-2.1316,-2.1325,0,0,0,0,0,0,-2.0826,-2.0843,-2.0865,-2.0911,-2.0928,-2.101,-2.0994,-2.1,-2.1026,-2.1026,-2.1072,-2.1079,-2.1096,-2.1156,-2.1168,-2.1193,-2.1157,-2.131,-2.1313,-2.1316,-2.1323,-2.1327,-2.1331,0,0,0,0,0,-2.082,-2.0864,-2.0866,-2.088,-2.0957,-2.1011,-2.1021,-2.104,-2.1028,-2.105,-2.1076,-2.1077,-2.1183,-2.1162,-2.1175,-2.1202,-2.1308,-2.1312,-2.1315,-2.1321,-2.1326,-2.1331,0,0,0,0,0,0,-2.082,-2.087,-2.0873,-2.0933,-2.0968,-2.1012,-2.1041,-2.1046,-2.1084,-2.1082,-2.1104,-2.1115,-2.117,-2.1192,-2.1167,-2.1261,-2.1244,-2.1251,-2.1244,-2.125,-2.1254,-2.1247,-2.1161,0,0,0,0,0,-2.0827,-2.0867,-2.0909,-2.0958,-2.0975,-2.1005,-2.103,-2.1041,-2.1078,-2.1093,-2.1122,-2.1158,-2.1199,-2.1226,-2.1266,-2.1326,-2.1336,-2.1352,-2.1356,-2.1359,-2.1364,-2.1398,-2.1405,-2.1329,-2.1329,-2.1329,0,0,-2.0841,-2.0874,-2.0898,-2.0958,-2.0987,-2.1027,-2.1017,-2.1061,-2.1092,-2.1099,-2.1154,-2.1177,-2.1218,-2.1276,-2.1303,-2.1296,-2.1388,-2.1364,-2.1366,-2.137,-2.1402,-2.1409,-2.1416,-2.1331,-2.1331,-2.1331,0,0,-2.0889,-2.0918,-2.0961,-2.099,-2.1033,-2.1053,-2.1063,-2.1107,-2.1123,-2.1178,-2.1184,-2.1221,-2.1292,-2.1321,-2.1345,-2.1404,-2.1407,-2.1417,-2.1439,-2.1471,-2.1477,-2.1482,-2.1503,-2.151,-2.1422,-2.1422,-2.1422,0,-2.0901,-2.0963,-2.0983,-2.1027,-2.1053,-2.1062,-2.1106,-2.1133,-2.1187,-2.1205,-2.1197,-2.1286,-2.1314,-2.1379,-2.1394,-2.1413,-2.1426,-2.1411,-2.1475,-2.148,-2.1486,-2.1505,-2.1513,-2.1423,-2.1423,-2.1422,-2.1422,0,-2.0976,-2.1019,-2.1049,-2.1101,-2.1131,-2.1175,-2.1201,-2.1229,-2.1238,-2.1259,-2.1315,-2.135,-2.1397,-2.1414,-2.1423,-2.148,-2.1474,-2.147,-2.1454,-2.1493,-2.1512,-2.152,-2.1424,-2.1424,-2.1423,-2.1423,0,0,-2.1025,-2.1088,-2.1098,-2.1122,-2.117,-2.1204,-2.1248,-2.1294,-2.1317,-2.1355,-2.1392,-2.1452,-2.1448,-2.1476,-2.1489,-2.1517,-2.1561,-2.1509,-2.1511,-2.1517,-2.1625,-2.1627,-2.1636,-2.1563,-2.1565,-2.1566,-2.1621,0,-2.1078,-2.1156,-2.1176,-2.1243,-2.1282,-2.1292,-2.133,-2.1364,-2.1385,-2.1422,-2.1445,-2.1487,-2.1479,-2.1495,-2.1524,-2.1549,-2.1583,-2.1546,-2.1598,-2.1599,-2.1586,-2.1646,-2.1648,-2.1699,-2.1629,-2.163,-2.1631,0,-2.1149,-2.1187,-2.1258,-2.1301,-2.1319,-2.1353,-2.1397,-2.1432,-2.1471,-2.1484,-2.1514,-2.1525,-2.1571,-2.1553,-2.1617,-2.1592,-2.1615,-2.163,-2.1633,-2.1638,-2.1617,-2.1651,-2.1716,-2.1723,-2.1643,-2.1642,-2.1641,0,-2.1177,-2.1246,-2.1298,-2.1318,-2.1369,-2.1393,-2.1416,-2.1453,-2.1479,-2.1518,-2.1535,-2.1579,-2.1603,-2.1636,-2.1658,-2.1643,-2.172,-2.1704,-2.1732,-2.1731,-2.1747,-2.1745,-2.1815,-2.1763,-2.1763,-2.1763,-2.1762,0,-2.1233,-2.1276,-2.1311,-2.1342,-2.1391,-2.1413,-2.146,-2.1483,-2.1516,-2.1552,-2.1564,-2.1597,-2.1624,-2.1662,-2.1679,-2.1729,-2.174,-2.1752,-2.1756,-2.175,-2.1749,-2.1765,-2.1762,-2.1765,-2.1764,-2.1764,-2.1763,0,-2.1272,-2.1297,-2.1354,-2.1398,-2.141,-2.1443,-2.1481,-2.1512,-2.1533,-2.1579,-2.1591,-2.1624,-2.1669,-2.1694,-2.1751,-2.1762,-2.1818,-2.1821,-2.1805,-2.1806,-2.1832,-2.1829,-2.1914,-2.1926,-2.1866,-2.1867,-2.1867,0,-2.1305,-2.1339,-2.1386,-2.1411,-2.1434,-2.1474,-2.1501,-2.1524,-2.1552,-2.1598,-2.1624,-2.1669,-2.1707,-2.1778,-2.1807,-2.185,-2.1853,-2.188,-2.186,-2.1853,-2.1853,-2.185,-2.1854,-2.1883,-2.1883,-2.1884,-2.1884,0,-2.1362,-2.1373,-2.1412,-2.1455,-2.1487,-2.1522,-2.1556,-2.1576,-2.1605,-2.1636,-2.1681,-2.171,-2.1768,-2.1813,-2.1858,-2.1882,-2.1888,-2.1891,-2.1899,-2.1894,-2.1883,-2.1888,-2.1813,-2.1888,-2.1888,-2.1888,-2.1887,-2.1887,-2.1399,-2.1429,-2.1467,-2.151,-2.1538,-2.157,-2.1602,-2.1627,-2.1665,-2.1713,-2.1725,-2.1773,-2.1811,-2.1872,-2.1897,-2.1935,-2.193,-2.1943,-2.1946,-2.1948,-2.1949,-2.1877,-2.1943,-2.1943,-2.1943,-2.1943,-2.1943,0,-2.1457,-2.1481,-2.152,-2.1568,-2.1602,-2.1605,-2.1643,-2.1671,-2.1713,-2.1748,-2.1784,-2.1837,-2.188,-2.1913,-2.1957,-2.1982,-2.1986,-2.1992,-2.1991,-2.1996,-2.1951,-2.1939,-2.1988,-2.1988,-2.1988,-2.1988,-2.1988,-2.1988,-2.149,-2.1541,-2.1556,-2.1621,-2.1645,-2.1692,-2.1714,-2.1744,-2.1771,-2.1829,-2.1865,-2.1886,-2.192,-2.1967,-2.2007,-2.2016,-2.2031,-2.2038,-2.2047,-2.2004,-2.1999,-2.1994,-2.1983,-2.2041,-2.2041,-2.2088,-2.2089,-2.2089]},{"header":{"parameterUnit":"m.s-1","parameterCategory":1,"la1":30.2991,"la2":30.254,"lo1":-89.0895,"lo2":-89.0444,"dy":0.0017,"dx":0.0017,"nx":28,"ny":28,"refTime":"2024-05-29T03:00:00:Z","depth":0,"parameterNumber":3,"parameterNumberName":"V-component_of_WINDS"},"data":[0,0,0,0,0,0,0,0,0,0,0,0,0,0,0,0,0,0,0,0,0,0,0,0,0,0,0,0,0,0,0,0,0,0,0,0,0,0,0,0,0,0,0,0,0,0,0,0,0,0,0,0,0,0,0,0,0,0,4.641,4.6411,0,4.6502,4.6503,4.6504,4.6464,4.6461,4.6459,4.6457,4.6547,4.6552,4.6556,0,0,0,0,0,0,0,0,0,0,0,0,0,4.6192,4.6197,4.641,4.6411,4.6412,4.6502,4.6503,4.6505,4.6464,4.6461,4.6459,4.6456,4.6546,4.6551,4.6556,0,0,0,0,0,0,0,0,0,0,0,0,0,4.6286,4.6198,4.6409,4.6403,4.6403,4.6502,4.6503,4.6505,4.6465,4.6461,4.6458,4.6455,4.6544,4.655,4.6557,4.6667,0,0,4.6578,4.6581,0,0,0,0,0,0,0,0,4.6281,4.6294,4.6402,4.6403,4.6404,4.6468,4.646,4.6559,4.6466,4.6441,4.6457,4.6453,4.6523,4.6531,4.6556,4.6671,4.6675,4.6578,4.6582,4.6585,4.6587,0,0,0,0,0,0,0,4.6274,4.629,4.6446,4.6404,4.6405,4.6393,4.6403,4.6478,4.65,4.6443,4.644,4.6452,4.6523,4.655,4.6558,4.6676,4.6578,4.6584,4.6588,4.6591,4.6883,4.6887,0,0,0,0,0,0,4.6268,4.6285,4.6443,4.6449,4.6333,4.64,4.6411,4.6451,4.6499,4.6503,4.6455,4.645,4.654,4.655,4.6561,4.6691,4.6585,4.6592,4.6596,4.688,4.6884,4.6888,0,0,0,0,0,0,4.6264,4.6283,4.6439,4.6366,4.6385,4.6407,4.6453,4.6454,4.6481,4.6508,4.6511,4.6479,4.6538,4.6551,4.6641,4.6693,4.6595,4.6601,4.6875,4.6881,4.6886,4.6953,0,0,0,0,0,0,4.6258,4.6282,4.6325,4.6367,4.6389,4.6519,4.6456,4.6459,4.6494,4.6488,4.6531,4.6535,4.6536,4.6631,4.6647,4.6701,4.6606,4.687,4.6878,4.6884,4.6946,4.696,4.6972,0,0,0,0,0,4.625,4.6339,4.6327,4.6346,4.6444,4.6522,4.6535,4.6535,4.6498,4.654,4.6558,4.6534,4.6686,4.664,4.6658,4.6715,4.6867,4.6876,4.6884,4.694,4.6957,4.6971,0,0,0,0,0,0,4.63,4.6344,4.6332,4.6437,4.6477,4.6515,4.6569,4.6554,4.6603,4.6595,4.6593,4.6603,4.6695,4.6714,4.6663,4.6823,4.677,4.6783,4.6807,4.6823,4.6836,4.6829,4.6612,0,0,0,0,0,4.6324,4.6386,4.642,4.651,4.6531,4.6547,4.6581,4.6578,4.6618,4.6634,4.6657,4.6696,4.6752,4.6789,4.6842,4.6949,4.6956,4.6997,4.701,4.702,4.703,4.7087,4.7104,4.6915,4.6915,4.6915,0,0,4.6373,4.6404,4.6443,4.6521,4.6551,4.6613,4.6561,4.6629,4.6674,4.6644,4.6729,4.6748,4.679,4.6889,4.6933,4.6907,4.7085,4.7031,4.7039,4.7043,4.7097,4.7115,4.7131,4.6921,4.692,4.6919,0,0,4.6493,4.6524,4.6602,4.6633,4.668,4.669,4.6709,4.675,4.6762,4.6848,4.6826,4.6879,4.6977,4.7007,4.7036,4.7168,4.7147,4.7185,4.7253,4.7308,4.7322,4.7335,4.7381,4.7398,4.7196,4.7196,4.7196,0,4.6547,4.6642,4.6643,4.6713,4.6747,4.6724,4.6801,4.6831,4.6892,4.6915,4.6886,4.7008,4.7035,4.7139,4.7171,4.7196,4.7215,4.718,4.7321,4.7334,4.7346,4.7389,4.7406,4.72,4.72,4.7199,4.7199,0,4.6705,4.6771,4.6828,4.6889,4.6929,4.7003,4.7013,4.7054,4.7048,4.706,4.7147,4.7179,4.7238,4.7263,4.7257,4.7366,4.7349,4.7321,4.7267,4.7368,4.7409,4.7425,4.7206,4.7205,4.7203,4.7202,0,0,4.6859,4.692,4.6941,4.6968,4.7017,4.7067,4.7139,4.7198,4.7232,4.7275,4.7334,4.7417,4.7391,4.7423,4.742,4.7469,4.757,4.7434,4.7435,4.7457,4.769,4.771,4.7729,4.7557,4.756,4.7563,4.7686,0,4.6982,4.7109,4.7112,4.7228,4.7287,4.7266,4.7328,4.7364,4.7378,4.7429,4.7444,4.7502,4.7465,4.7484,4.7531,4.7547,4.7616,4.7539,4.7609,4.7612,4.7598,4.775,4.7772,4.7887,4.7702,4.7704,4.7706,0,4.7142,4.7191,4.7313,4.7354,4.7379,4.7435,4.7488,4.7539,4.7579,4.7585,4.7622,4.7612,4.7683,4.7629,4.7726,4.7674,4.7703,4.7715,4.772,4.7725,4.7664,4.7758,4.7923,4.794,4.7732,4.773,4.7728,0,4.724,4.7337,4.7422,4.7446,4.7496,4.7535,4.7557,4.7594,4.7629,4.7676,4.7698,4.7752,4.7781,4.7822,4.7827,4.7787,4.7924,4.7871,4.793,4.793,4.7958,4.7956,4.8128,4.798,4.7979,4.7979,4.7979,0,4.7376,4.7451,4.7466,4.7519,4.7601,4.7604,4.7685,4.7704,4.7737,4.7791,4.7776,4.7827,4.783,4.7882,4.7886,4.7965,4.7979,4.7984,4.7984,4.7985,4.7984,4.8003,4.7994,4.7984,4.7983,4.7982,4.7981,0,4.7499,4.7512,4.7604,4.7644,4.7655,4.7714,4.7748,4.7797,4.7809,4.7878,4.7894,4.7913,4.7973,4.7982,4.8052,4.8055,4.8149,4.8141,4.8136,4.8134,4.8192,4.8186,4.8381,4.8407,4.8243,4.8244,4.8246,0,4.7584,4.7641,4.7688,4.7723,4.7748,4.7806,4.7842,4.7846,4.7884,4.7934,4.7976,4.8035,4.8082,4.8179,4.8198,4.8252,4.8244,4.8309,4.8252,4.825,4.8243,4.8239,4.8244,4.8319,4.8321,4.8322,4.8324,0,4.7733,4.7737,4.779,4.7845,4.7889,4.7932,4.7973,4.8003,4.8012,4.8055,4.8117,4.8154,4.8226,4.8284,4.8337,4.8358,4.8342,4.8342,4.8358,4.8359,4.8352,4.8355,4.8164,4.8337,4.8336,4.8335,4.8334,4.8333,4.7839,4.7888,4.7928,4.7987,4.8019,4.8058,4.8105,4.8124,4.8176,4.8236,4.8235,4.8303,4.834,4.841,4.8435,4.8487,4.8465,4.8489,4.8495,4.85,4.8505,4.8346,4.8497,4.8496,4.8496,4.8496,4.8495,0,4.7986,4.8011,4.8065,4.8123,4.817,4.8152,4.8197,4.8236,4.8296,4.8333,4.838,4.8451,4.8507,4.8531,4.8586,4.8623,4.8617,4.8637,4.8633,4.8638,4.8522,4.8502,4.8641,4.8641,4.8641,4.864,4.864,4.864,4.8068,4.815,4.8159,4.8256,4.828,4.8347,4.8374,4.8408,4.8438,4.8518,4.8565,4.8581,4.8612,4.8669,4.8719,4.8725,4.8745,4.8768,4.877,4.8661,4.8646,4.8632,4.8613,4.8773,4.8773,4.8881,4.8882,4.8883]}]]